This is the latest recevied weather packets stored in our database for station/object KO4WIL-13. If no packets are shown the sender has not sent any weather packets the latest 10 day(s).
| Time | Temp. | Humidity | Pressure | Rain* | Wind** | Luminosity | Snow |
|---|---|---|---|---|---|---|---|
| 1777727573 | 11.67° C | 60% | 967.3 hPa | 0 mm | - | - | - |
| 1777727271 | 11.11° C | 64% | 967.4 hPa | 0 mm | - | - | - |
| 1777726968 | 11.11° C | 65% | 967.4 hPa | 0 mm | - | - | - |
| 1777726666 | 11.11° C | 63% | 967.4 hPa | 0 mm | - | - | - |
| 1777726365 | 11.11° C | 64% | 967.3 hPa | 0 mm | - | - | - |
| 1777726062 | 11.11° C | 64% | 967.3 hPa | 0 mm | - | - | - |
| 1777725760 | 10.56° C | 66% | 967.3 hPa | 0 mm | - | - | - |
| 1777725459 | 10.56° C | 64% | 967.3 hPa | 0 mm | - | - | - |
| 1777725157 | 10° C | 68% | 967.3 hPa | 0 mm | - | - | - |
| 1777724855 | 9.44° C | 69% | 967.3 hPa | 0 mm | - | - | - |
| 1777724553 | 9.44° C | 69% | 967.3 hPa | 0 mm | - | - | - |
| 1777724251 | 9.44° C | 69% | 967.5 hPa | 0 mm | - | - | - |
| 1777723949 | 8.89° C | 69% | 967.4 hPa | 0 mm | - | - | - |
| 1777723647 | 8.89° C | 69% | 967.4 hPa | 0 mm | - | - | - |
| 1777723345 | 8.89° C | 69% | 967.3 hPa | 0 mm | - | - | - |
| 1777723043 | 8.89° C | 69% | 967.2 hPa | 0 mm | - | - | - |
| 1777722741 | 8.89° C | 69% | 967.1 hPa | 0 mm | - | - | - |
| 1777722439 | 8.89° C | 68% | 967 hPa | 0 mm | - | - | - |
| 1777722137 | 8.89° C | 69% | 966.8 hPa | 0 mm | - | - | - |
| 1777721835 | 8.89° C | 68% | 966.9 hPa | 0 mm | - | - | - |
| 1777721533 | 8.89° C | 69% | 966.9 hPa | 0 mm | - | - | - |
| 1777721232 | 8.33° C | 69% | 966.8 hPa | 0 mm | - | - | - |
| 1777720930 | 8.33° C | 70% | 966.9 hPa | 0 mm | - | - | - |
| 1777720628 | 8.33° C | 69% | 966.8 hPa | 0 mm | - | - | - |
| 1777720326 | 8.33° C | 69% | 966.8 hPa | 0 mm | - | - | - |
* Rain latest hour (hover to see other rain measurements)
** Current wind speed in m/s (hover to see current wind gust speed)